TimeMDT,TemperatureF,Dew PointF,Humidity,Sea Level PressureIn,VisibilityMPH,Wind Direction,Wind SpeedMPH,Gust SpeedMPH,PrecipitationIn,Events,Conditions,WindDirDegrees,DateUTC
12:53 AM,59.0,36.0,42,29.73,10.0,ESE,17.3,-,N/A,,Clear,120,2013-09-25 06:53:00
1:53 AM,59.0,36.0,42,29.71,10.0,SE,18.4,-,N/A,,Clear,130,2013-09-25 07:53:00
2:53 AM,55.9,36.0,47,29.68,10.0,East,9.2,-,N/A,,Clear,100,2013-09-25 08:53:00
3:53 AM,57.0,35.1,44,29.66,10.0,East,13.8,-,N/A,,Clear,100,2013-09-25 09:53:00
4:53 AM,55.0,36.0,49,29.65,10.0,ESE,15.0,-,N/A,,Clear,120,2013-09-25 10:53:00
5:53 AM,55.9,36.0,47,29.63,10.0,ESE,11.5,-,N/A,,Clear,120,2013-09-25 11:53:00
6:53 AM,57.9,35.1,42,29.64,10.0,ESE,15.0,-,N/A,,Clear,120,2013-09-25 12:53:00
7:53 AM,59.0,35.1,41,29.66,10.0,East,11.5,-,N/A,,Clear,100,2013-09-25 13:53:00
8:53 AM,64.0,36.0,35,29.62,10.0,ESE,10.4,19.6,N/A,,Clear,110,2013-09-25 14:53:00
9:53 AM,70.0,30.9,24,29.59,10.0,South,25.3,34.5,N/A,,Clear,180,2013-09-25 15:53:00
10:53 AM,73.0,30.9,21,29.57,10.0,SSE,21.9,35.7,N/A,,Clear,150,2013-09-25 16:53:00
11:53 AM,75.0,30.0,19,29.52,10.0,SSE,24.2,31.1,N/A,,Clear,160,2013-09-25 17:53:00
12:53 PM,75.9,28.0,17,29.49,10.0,SSW,25.3,36.8,N/A,,Clear,200,2013-09-25 18:53:00
1:53 PM,78.1,28.9,17,29.45,10.0,SSW,25.3,38.0,N/A,,Clear,200,2013-09-25 19:53:00
2:53 PM,78.1,28.9,17,29.42,10.0,SSW,24.2,33.4,N/A,,Clear,200,2013-09-25 20:53:00
3:53 PM,78.1,28.0,16,29.39,10.0,SW,16.1,38.0,N/A,,Clear,220,2013-09-25 21:53:00
4:53 PM,79.0,26.1,14,29.37,10.0,SW,18.4,34.5,N/A,,Clear,220,2013-09-25 22:53:00
5:53 PM,78.1,25.0,14,29.36,10.0,SSW,19.6,31.1,N/A,,Clear,210,2013-09-25 23:53:00
6:53 PM,75.9,26.1,16,29.36,10.0,SSW,17.3,24.2,N/A,,Clear,210,2013-09-26 00:53:00
7:53 PM,72.0,26.1,18,29.37,10.0,South,9.2,-,N/A,,Clear,190,2013-09-26 01:53:00
8:53 PM,70.0,27.0,20,29.39,10.0,South,5.8,-,N/A,,Clear,190,2013-09-26 02:53:00
9:53 PM,66.9,30.0,25,29.39,10.0,South,8.1,-,N/A,,Clear,170,2013-09-26 03:53:00
10:53 PM,66.0,30.9,27,29.40,10.0,SSE,12.7,-,N/A,,Clear,150,2013-09-26 04:53:00
11:53 PM,66.9,30.9,26,29.41,10.0,SSE,11.5,-,N/A,,Clear,150,2013-09-26 05:53:00